Location: Eppenbrunn
(49.1158°N, 7.5601°E)
Time: 12:27:53
(UTC+00:00)

Meteor 2-3 Rocket - Pass Details

Date: 09 April 2020
Orbit: 842 x 885 km, 81.2° (Epoch: 27 May)

Event Time Altitude Azimuth Distance (km) Brightness Sun altitude
Rises 21:47:12 0° 345° (NNW) 3,481 8.0 -28.5°
Reaches altitude 10° 21:49:40 10° 343° (NNW) 2,533 7.1 -28.7°
Maximum altitude 21:55:21 63° 263° (W) 961 3.9 -29.1°
Enters shadow 21:55:24 63° 260° (W) 961 3.9 -29.1°
